DELTA 1 R/B(2), 2643

Orbit data source: Space-Track

DELTA 1 R/B(2), 2643 is space debris in HEO originally from a launch on Wed, 11 Jan 1967 UTC launched from the Air Force Eastern Test Range (AFETR). Debris objects in space refer to the collection of defunct objects orbiting the Earth. Examples of debris include non-operational satellites, rocket bodies, and fragments generated from explosions, collisions, or faulty payload assembly.

Loading next visibility...
Identifier
2643, 1967-001D
Orbit
HEO
Country
Flag of USUS
Related business
Manufacturer
UTC
Mission
Spacecraft
Bus & Motor
FW4, Unknown motor
Mass
34 kg wet, 34 kg dry
Launch date (UTC)
1967-01-11 (59 years ago)
Launch vehicle
Unknown
Launch site
Air Force Eastern Test Range (AFETR)
Object type
Payload
Rocket body
Debris
Shape & HBR
Unknown
Radar Cross Section
Medium (>0.1 m² and <1 m²)

Expand to show TLE details & history
Last TLE update: 11 hours ago

TLE from 11 hours ago
0 DELTA 1 R/B(2)
1  2643U 67001D   26037.94875642  .00021262  00000-0  40900-2 0  9990
2  2643  25.8008 303.6206 5932713 195.8277 131.9134  4.14340474750914
Epoch: 2026-02-06T22:46Z
TLE epoch observation values (Epoch: 2026-02-06T22:46:12.554Z)
Latitude
0.00004°
Longitude
-174.99988°
Altitude
18,352.488 km
Speed
2.81 km/s
True Right ascension
20h 14m 31s
True Declination
0° 00' 00"
Sunlit
Object was in daylight at epoch
Visualization orbit readout
Latitude
Unknown
Longitude
Unknown
Altitude
Unknown
Speed
Unknown
Apparent Right ascension
Unknown
Apparent Declination
Unknown
Sunlit
N/A
Visualization observer readout
Local Sidereal Time
11:51:43
Azimuth
Unknown
Elevation
Unknown
Doppler factor
Unknown
Orbital elements
Apogee altitude
19,716.514 km
Perigee altitude
283.279 km
Semi-major axis
16,378.034 km
Eccentricity
0.59327
Inclination
25.8008°
RAAN
303.6206°
Arg. of periapsis
195.8277°
True anomaly
164.19607°
Mean anomaly
131.9134°
Eccentric anomaly
149.27864°
Mean motion
1.0355 °/min
Orbital period
347.66 mins
BSTAR
0.00409
Loading maneuver chart data...
Computing Atmospheric mass density...

Documentation

Showing up to 5 results
|